TimeCST,TemperatureF,Dew PointF,Humidity,Sea Level PressureIn,VisibilityMPH,Wind Direction,Wind SpeedMPH,Gust SpeedMPH,PrecipitationIn,Events,Conditions,WindDirDegrees,DateUTC
12:52 AM,18.0,10.9,74,30.26,-9999.0,North,8.1,-,N/A,,Unknown,360,2013-01-01 06:52:00
1:52 AM,16.0,9.0,74,30.28,-9999.0,North,3.5,-,N/A,,Unknown,360,2013-01-01 07:52:00
2:52 AM,12.9,9.0,84,30.30,-9999.0,NNW,3.5,-,N/A,,Unknown,340,2013-01-01 08:52:00
3:52 AM,12.9,8.1,81,30.31,-9999.0,North,4.6,-,N/A,,Unknown,350,2013-01-01 09:52:00
4:52 AM,12.9,6.1,74,30.30,-9999.0,North,8.1,-,N/A,,Unknown,350,2013-01-01 10:52:00
5:52 AM,12.9,5.0,71,30.30,-9999.0,North,10.4,17.3,N/A,,Unknown,10,2013-01-01 11:52:00
6:52 AM,10.9,5.0,77,30.33,-9999.0,NNW,4.6,-,N/A,,Unknown,330,2013-01-01 12:52:00
7:52 AM,9.0,3.9,80,30.34,-9999.0,North,5.8,-,N/A,,Unknown,350,2013-01-01 13:52:00
8:52 AM,12.0,3.9,70,30.39,-9999.0,Variable,4.6,-,N/A,,Unknown,0,2013-01-01 14:52:00
9:52 AM,14.0,3.9,64,30.40,-9999.0,Variable,3.5,-,N/A,,Unknown,0,2013-01-01 15:52:00
10:52 AM,16.0,5.0,62,30.40,-9999.0,North,4.6,-,N/A,,Unknown,360,2013-01-01 16:52:00
11:52 AM,16.0,6.1,65,30.38,-9999.0,NNW,5.8,-,N/A,,Unknown,340,2013-01-01 17:52:00
12:52 PM,19.0,7.0,59,30.35,-9999.0,North,5.8,-,N/A,,Unknown,10,2013-01-01 18:52:00
1:52 PM,19.9,6.1,55,30.36,-9999.0,NNW,4.6,-,N/A,,Unknown,340,2013-01-01 19:52:00
2:52 PM,21.0,6.1,53,30.35,-9999.0,Calm,Calm,-,N/A,,Unknown,0,2013-01-01 20:52:00
3:52 PM,21.0,5.0,50,30.35,-9999.0,WNW,3.5,-,N/A,,Unknown,300,2013-01-01 21:52:00
4:52 PM,19.9,8.1,60,30.35,-9999.0,SW,4.6,-,N/A,,Unknown,230,2013-01-01 22:52:00
5:52 PM,17.1,7.0,65,30.34,-9999.0,Calm,Calm,-,N/A,,Unknown,0,2013-01-01 23:52:00
6:52 PM,12.0,6.1,77,30.35,-9999.0,Calm,Calm,-,N/A,,Unknown,0,2013-01-02 00:52:00
7:52 PM,10.0,6.1,84,30.36,-9999.0,Calm,Calm,-,N/A,,Unknown,0,2013-01-02 01:52:00
8:52 PM,9.0,5.0,84,30.34,-9999.0,Calm,Calm,-,N/A,,Unknown,0,2013-01-02 02:52:00
9:52 PM,8.1,5.0,87,30.34,-9999.0,Calm,Calm,-,N/A,,Unknown,0,2013-01-02 03:52:00
10:52 PM,8.1,3.9,83,30.34,-9999.0,Calm,Calm,-,N/A,,Unknown,0,2013-01-02 04:52:00
11:52 PM,8.1,3.9,83,30.32,-9999.0,Calm,Calm,-,N/A,,Unknown,0,2013-01-02 05:52:00